When you browse on this site, cookies collect data to enhance your experience and personalize the content and advertising you see.
Visit our Privacy Policy to learn more. By continuing to use the site, you agree to this use of cookies and data.
  • In Portugal
  • List of Countries
  • For 7 days
  • Water Temperature
  • Satellite Maps
  • Weather Map
  • Weather Widgets
  • user-avatar
    Login

    Hourly Weather Chizhovka

    Today, 20 April, Saturday

    Time Temperature Precipitation Wind Pressure Humidity
    00:00 +8°C° 0 mm 1 mps 760 mmHg 52%
    01:00 +7°C° 0 mm 1 mps 760 mmHg 53%
    02:00 +6°C° 0 mm 2 mps 760 mmHg 54%
    03:00 +5°C° 0 mm 2 mps 759 mmHg 57%
    04:00 +6°C° 0 mm 1 mps 759 mmHg 59%
    05:00 +5°C° 0 mm 1 mps 759 mmHg 61%
    06:00 +6°C° 0 mm 2 mps 759 mmHg 58%
    07:00 +8°C° 0 mm 2 mps 759 mmHg 55%
    08:00 +10°C° 0 mm 2 mps 758 mmHg 51%
    09:00 +13°C° 0 mm 2 mps 758 mmHg 46%
    10:00 +13°C° 0 mm 3 mps 758 mmHg 40%
    11:00 +16°C° 0 mm 3 mps 758 mmHg 35%
    12:00 +16°C° 0 mm 3 mps 757 mmHg 34%
    13:00 +16°C° 0 mm 2 mps 757 mmHg 34%
    14:00 +16°C° 0 mm 2 mps 757 mmHg 34%
    15:00 +16°C° 0 mm 2 mps 756 mmHg 36%
    16:00 +16°C° 0 mm 2 mps 756 mmHg 38%
    17:00 +16°C° 0 mm 2 mps 756 mmHg 40%
    18:00 +14°C° 0.1 mm 2 mps 756 mmHg 44%
    19:00 +13°C° 0.1 mm 2 mps 756 mmHg 48%
    20:00 +12°C° 0.1 mm 2 mps 756 mmHg 52%
    21:00 +12°C° 0 mm 2 mps 756 mmHg 53%
    22:00 +10°C° 0 mm 2 mps 756 mmHg 53%
    23:00 +10°C° 0 mm 2 mps 756 mmHg 54%

    Tomorrow, 21 April, Sunday

    Time Temperature Precipitation Wind Pressure Humidity
    00:00 +9°C° 0 mm 2 mps 756 mmHg 55%
    01:00 +9°C° 0 mm 3 mps 756 mmHg 57%
    02:00 +9°C° 0 mm 3 mps 755 mmHg 58%
    03:00 +8°C° 0.1 mm 3 mps 755 mmHg 63%
    04:00 +8°C° 0.1 mm 3 mps 755 mmHg 67%
    05:00 +7°C° 0.1 mm 2 mps 755 mmHg 72%
    06:00 +9°C° 0 mm 3 mps 755 mmHg 68%
    07:00 +10°C° 0 mm 3 mps 755 mmHg 63%
    08:00 +11°C° 0 mm 4 mps 755 mmHg 59%
    09:00 +12°C° 0 mm 4 mps 755 mmHg 53%
    10:00 +13°C° 0 mm 5 mps 755 mmHg 47%
    11:00 +15°C° 0 mm 6 mps 755 mmHg 40%
    12:00 +15°C° 0 mm 6 mps 755 mmHg 40%
    13:00 +15°C° 0 mm 6 mps 755 mmHg 40%
    14:00 +15°C° 0 mm 6 mps 755 mmHg 40%
    15:00 +15°C° 0 mm 6 mps 755 mmHg 41%
    16:00 +14°C° 0 mm 5 mps 755 mmHg 43%
    17:00 +13°C° 0 mm 5 mps 755 mmHg 44%
    18:00 +12°C° 0 mm 5 mps 756 mmHg 46%
    19:00 +11°C° 0 mm 4 mps 756 mmHg 48%
    20:00 +10°C° 0 mm 4 mps 757 mmHg 50%
    21:00 +10°C° 0 mm 4 mps 757 mmHg 52%
    22:00 +8°C° 0 mm 4 mps 757 mmHg 53%
    23:00 +9°C° 0 mm 3 mps 758 mmHg 55%

    Day after tomorrow, 22 April, Monday

    Time Temperature Precipitation Wind Pressure Humidity
    00:00 +9°C° 0 mm 3 mps 758 mmHg 56%
    01:00 +8°C° 0 mm 3 mps 758 mmHg 57%
    02:00 +8°C° 0 mm 3 mps 759 mmHg 59%
    03:00 +8°C° 0 mm 2 mps 759 mmHg 60%
    04:00 +7°C° 0 mm 2 mps 759 mmHg 62%
    05:00 +7°C° 0 mm 2 mps 759 mmHg 64%
    06:00 +8°C° 0 mm 2 mps 759 mmHg 59%
    07:00 +10°C° 0 mm 2 mps 760 mmHg 54%
    08:00 +11°C° 0 mm 3 mps 760 mmHg 48%
    09:00 +12°C° 0 mm 3 mps 760 mmHg 44%
    10:00 +13°C° 0 mm 3 mps 760 mmHg 40%
    11:00 +14°C° 0 mm 4 mps 760 mmHg 35%
    12:00 +14°C° 0 mm 4 mps 760 mmHg 35%
    13:00 +14°C° 0 mm 3 mps 760 mmHg 35%
    14:00 +14°C° 0 mm 3 mps 760 mmHg 34%
    15:00 +14°C° 0 mm 3 mps 760 mmHg 35%
    16:00 +14°C° 0 mm 3 mps 760 mmHg 37%
    17:00 +14°C° 0 mm 3 mps 760 mmHg 38%
    18:00 +14°C° 0 mm 2 mps 760 mmHg 40%
    19:00 +13°C° 0 mm 2 mps 760 mmHg 42%
    20:00 +12°C° 0 mm 1 mps 761 mmHg 44%
    21:00 +12°C° 0 mm 1 mps 761 mmHg 46%
    22:00 +11°C° 0 mm 1 mps 761 mmHg 48%
    23:00 +11°C° 0 mm 1 mps 761 mmHg 49%

    23 April, Tuesday

    Time Temperature Precipitation Wind Pressure Humidity
    00:00 +10°C° 0 mm 1 mps 762 mmHg 52%
    01:00 +10°C° 0 mm 1 mps 762 mmHg 54%
    02:00 +9°C° 0 mm 1 mps 762 mmHg 56%
    03:00 +8°C° 0 mm 1 mps 762 mmHg 58%
    04:00 +8°C° 0 mm 1 mps 762 mmHg 61%
    05:00 +7°C° 0 mm 1 mps 762 mmHg 63%
    06:00 +8°C° 0 mm 2 mps 762 mmHg 58%
    07:00 +10°C° 0 mm 2 mps 762 mmHg 53%
    08:00 +13°C° 0 mm 2 mps 762 mmHg 48%
    09:00 +14°C° 0 mm 2 mps 762 mmHg 42%
    10:00 +16°C° 0 mm 3 mps 762 mmHg 37%
    11:00 +17°C° 0 mm 3 mps 762 mmHg 31%
    12:00 +17°C° 0 mm 3 mps 762 mmHg 32%
    13:00 +17°C° 0 mm 3 mps 762 mmHg 34%
    14:00 +17°C° 0 mm 3 mps 762 mmHg 35%
    15:00 +17°C° 0 mm 3 mps 761 mmHg 36%
    16:00 +17°C° 0 mm 3 mps 761 mmHg 38%
    17:00 +16°C° 0 mm 3 mps 761 mmHg 40%
    18:00 +14°C° 0 mm 3 mps 761 mmHg 45%
    19:00 +12°C° 0 mm 3 mps 761 mmHg 50%
    20:00 +12°C° 0 mm 2 mps 761 mmHg 55%
    21:00 +10°C° 0 mm 2 mps 761 mmHg 57%
    22:00 +9°C° 0 mm 2 mps 762 mmHg 59%
    23:00 +9°C° 0 mm 2 mps 762 mmHg 61%

    24 April, Wednesday

    Time Temperature Precipitation Wind Pressure Humidity
    00:00 +8°C° 0 mm 2 mps 762 mmHg 63%
    01:00 +8°C° 0 mm 2 mps 762 mmHg 64%
    02:00 +8°C° 0 mm 2 mps 762 mmHg 66%
    03:00 +7°C° 0 mm 2 mps 762 mmHg 67%
    04:00 +7°C° 0 mm 2 mps 762 mmHg 69%
    05:00 +7°C° 0 mm 2 mps 762 mmHg 70%
    06:00 +9°C° 0 mm 2 mps 762 mmHg 64%
    07:00 +11°C° 0 mm 3 mps 762 mmHg 59%
    08:00 +13°C° 0 mm 3 mps 762 mmHg 53%
    09:00 +14°C° 0 mm 3 mps 762 mmHg 49%
    10:00 +15°C° 0 mm 4 mps 762 mmHg 44%
    11:00 +16°C° 0 mm 5 mps 762 mmHg 40%
    12:00 +17°C° 0 mm 5 mps 762 mmHg 40%
    13:00 +17°C° 0 mm 5 mps 761 mmHg 39%
    14:00 +19°C° 0 mm 5 mps 761 mmHg 39%
    15:00 +17°C° 0 mm 5 mps 761 mmHg 40%
    16:00 +17°C° 0 mm 5 mps 760 mmHg 41%
    17:00 +18°C° 0 mm 4 mps 760 mmHg 42%
    18:00 +15°C° 0 mm 4 mps 760 mmHg 48%
    19:00 +13°C° 0 mm 3 mps 760 mmHg 54%
    20:00 +12°C° 0 mm 3 mps 760 mmHg 60%
    21:00 +11°C° 0 mm 3 mps 760 mmHg 61%
    22:00 +11°C° 0 mm 3 mps 760 mmHg 63%
    23:00 +10°C° 0 mm 3 mps 761 mmHg 64%

    25 April, Thursday

    Time Temperature Precipitation Wind Pressure Humidity
    00:00 +10°C° 0 mm 3 mps 760 mmHg 65%
    01:00 +9°C° 0 mm 3 mps 760 mmHg 66%
    02:00 +9°C° 0 mm 3 mps 760 mmHg 66%
    03:00 +8°C° 0 mm 3 mps 761 mmHg 67%
    04:00 +8°C° 0 mm 3 mps 761 mmHg 68%
    05:00 +8°C° 0 mm 3 mps 761 mmHg 69%
    06:00 +9°C° 0 mm 3 mps 761 mmHg 64%
    07:00 +11°C° 0 mm 4 mps 761 mmHg 59%
    08:00 +13°C° 0 mm 4 mps 760 mmHg 55%
    09:00 +15°C° 0 mm 4 mps 760 mmHg 50%
    10:00 +16°C° 0 mm 5 mps 760 mmHg 45%
    11:00 +19°C° 0 mm 6 mps 760 mmHg 40%
    12:00 +20°C° 0 mm 5 mps 759 mmHg 39%
    13:00 +20°C° 0 mm 5 mps 759 mmHg 38%
    14:00 +21°C° 0 mm 5 mps 758 mmHg 37%
    15:00 +20°C° 0 mm 5 mps 758 mmHg 38%
    16:00 +20°C° 0 mm 5 mps 758 mmHg 39%
    17:00 +20°C° 0 mm 4 mps 757 mmHg 41%
    18:00 +18°C° 0 mm 4 mps 757 mmHg 47%
    19:00 +16°C° 0 mm 3 mps 757 mmHg 53%
    20:00 +13°C° 0 mm 3 mps 757 mmHg 60%
    21:00 +13°C° 0 mm 3 mps 757 mmHg 61%
    22:00 +12°C° 0 mm 3 mps 757 mmHg 63%
    23:00 +12°C° 0 mm 3 mps 757 mmHg 64%
    Show more